| time (UTC) | temp F | wind direction | speed MPH | gust MPH | rain 1hr in | rain 24hr in | rain mn in | humidity % | barometer mb |
| 20260503192514 | 63 | 139 | 4.0 | 13.0 | 0.00 | 0.00 | 0.00 | 39 | 1016.9 |
| 20260503192013 | 64 | 139 | 4.0 | 13.0 | 0.00 | 0.00 | 0.00 | 38 | 1017.0 |
| 20260503191531 | 63 | 163 | 4.0 | 12.0 | 0.00 | 0.00 | 0.00 | 39 | 1017.1 |
| 20260503191013 | 63 | 129 | 4.0 | 14.0 | 0.00 | 0.00 | 0.00 | 36 | 1017.2 |
| 20260503190512 | 62 | 239 | 7.0 | 14.0 | 0.00 | 0.00 | 0.00 | 39 | 1017.1 |
| 20260503190032 | 62 | 188 | 6.0 | 14.0 | 0.00 | 0.00 | 0.00 | 38 | 1017.4 |
| 20260503185513 | 62 | 226 | 3.0 | 14.0 | 0.00 | 0.00 | 0.00 | 39 | 1017.4 |
| 20260503185014 | 62 | 259 | 3.0 | 14.0 | 0.00 | 0.00 | 0.00 | 40 | 1017.6 |
| 20260503184532 | 62 | 146 | 5.0 | 14.0 | 0.00 | 0.00 | 0.00 | 37 | 1017.6 |
| 20260503184013 | 62 | 167 | 2.0 | 16.0 | 0.00 | 0.00 | 0.00 | 41 | 1017.8 |
| 20260503183516 | 61 | 246 | 7.0 | 16.0 | 0.00 | 0.00 | 0.00 | 40 | 1017.9 |
| 20260503183044 | 61 | 248 | 8.0 | 16.0 | 0.00 | 0.00 | 0.00 | 39 | 1017.9 |
| 20260503182512 | 62 | 176 | 3.0 | 11.0 | 0.00 | 0.00 | 0.00 | 40 | 1017.8 |
| 20260503182010 | 60 | 130 | 6.0 | 14.0 | 0.00 | 0.00 | 0.00 | 41 | 1017.9 |
| 20260503181531 | 60 | 284 | 6.0 | 14.0 | 0.00 | 0.00 | 0.00 | 40 | 1018.1 |
| 20260503181014 | 61 | 305 | 6.0 | 14.0 | 0.00 | 0.00 | 0.00 | 41 | 1018.1 |
| 20260503180512 | 61 | 290 | 4.0 | 14.0 | 0.00 | 0.00 | 0.00 | 39 | 1018.1 |
| 20260503180031 | 61 | 216 | 4.0 | 14.0 | 0.00 | 0.00 | 0.00 | 39 | 1018.2 |
| 20260503175512 | 60 | 276 | 6.0 | 14.0 | 0.00 | 0.00 | 0.00 | 37 | 1018.3 |
| 20260503175018 | 60 | 134 | 4.0 | 16.0 | 0.00 | 0.00 | 0.00 | 39 | 1018.4 |
| 20260503174533 | 60 | 223 | 6.0 | 16.0 | 0.00 | 0.00 | 0.00 | 38 | 1018.5 |
| 20260503174013 | 61 | 231 | 5.0 | 16.0 | 0.00 | 0.00 | 0.00 | 38 | 1018.4 |
| 20260503173515 | 60 | 184 | 4.0 | 12.0 | 0.00 | 0.00 | 0.00 | 39 | 1018.7 |
| 20260503173030 | 60 | 195 | 6.0 | 14.0 | 0.00 | 0.00 | 0.00 | 38 | 1018.8 |
| 20260503172513 | 60 | 186 | 8.0 | 14.0 | 0.00 | 0.00 | 0.00 | 39 | 1018.8 |
| 20260503172017 | 60 | 255 | 3.0 | 12.0 | 0.00 | 0.00 | 0.00 | 39 | 1018.9 |
| 20260503171532 | 60 | 210 | 4.0 | 12.0 | 0.00 | 0.00 | 0.00 | 40 | 1019.0 |
| 20260503171013 | 60 | 259 | 3.0 | 11.0 | 0.00 | 0.00 | 0.00 | 43 | 1019.1 |
| 20260503170511 | 59 | 233 | 5.0 | 11.0 | 0.00 | 0.00 | 0.00 | 40 | 1019.2 |
| 20260503151012 | 56 | 172 | 4.0 | 11.0 | 0.00 | 0.00 | 0.00 | 47 | 1020.3 |
| 20260503150512 | 56 | 243 | 4.0 | 11.0 | 0.00 | 0.00 | 0.00 | 46 | 1020.3 |
| 20260503131013 | 49 | 150 | 2.0 | 7.0 | 0.00 | 0.00 | 0.00 | 63 | 1020.3 |
| 20260503130512 | 49 | 143 | 3.0 | 7.0 | 0.00 | 0.00 | 0.00 | 62 | 1020.3 |
| 20260503110512 | 37 | 141 | 0.0 | 2.0 | 0.00 | 0.00 | 0.00 | 81 | 1019.6 |
| 20260503090513 | 34 | 0 | 0.0 | 0.0 | 0.00 | 0.00 | 0.00 | 93 | 1019.2 |
| 20260503081535 | 33 | 0 | 0.0 | 0.0 | 0.00 | 0.00 | 0.00 | 91 | 1019.1 |
| 20260503081013 | 33 | 0 | 0.0 | 0.0 | 0.00 | 0.00 | 0.00 | 91 | 1019.0 |
| 20260503080511 | 34 | 0 | 0.0 | 0.0 | 0.00 | 0.00 | 0.00 | 91 | 1019.0 |
| 20260503072512 | 34 | 0 | 0.0 | 0.0 | 0.00 | 0.00 | 0.00 | 92 | 1018.8 |
| 20260503072013 | 34 | 0 | 0.0 | 0.0 | 0.00 | 0.00 | 0.00 | 91 | 1018.8 |
| 20260503071534 | 34 | 0 | 0.0 | 0.0 | 0.00 | 0.00 | 0.00 | 91 | 1018.8 |
| 20260503071012 | 34 | 0 | 0.0 | 0.0 | 0.00 | 0.00 | 0.00 | 91 | 1018.8 |
| 20260503070512 | 34 | 0 | 0.0 | 0.0 | 0.00 | 0.00 | 0.00 | 90 | 1018.9 |
| 20260503055013 | 37 | 0 | 0.0 | 0.0 | 0.00 | 0.00 | 0.00 | 88 | 1019.2 |
| 20260503054533 | 37 | 0 | 0.0 | 0.0 | 0.00 | 0.00 | 0.00 | 87 | 1019.1 |
| 20260503054013 | 37 | 0 | 0.0 | 0.0 | 0.00 | 0.00 | 0.00 | 87 | 1019.2 |
| 20260503053513 | 37 | 0 | 0.0 | 0.0 | 0.00 | 0.00 | 0.00 | 87 | 1019.3 |
| 20260503053034 | 37 | 0 | 0.0 | 0.0 | 0.00 | 0.00 | 0.00 | 87 | 1019.2 |
| 20260503052513 | 38 | 0 | 0.0 | 0.0 | 0.00 | 0.00 | 0.00 | 86 | 1019.2 |
| 20260503052013 | 38 | 0 | 0.0 | 0.0 | 0.00 | 0.00 | 0.00 | 85 | 1019.2 |
| 20260503051530 | 38 | 0 | 0.0 | 0.0 | 0.00 | 0.00 | 0.00 | 84 | 1019.2 |
| 20260503051012 | 38 | 0 | 0.0 | 0.0 | 0.00 | 0.00 | 0.00 | 83 | 1019.2 |
| 20260503050513 | 38 | 0 | 0.0 | 0.0 | 0.00 | 0.00 | 0.00 | 83 | 1019.1 |
| 20260503050036 | 38 | 0 | 0.0 | 1.0 | 0.00 | 0.00 | 0.00 | 83 | 1019.1 |
| 20260503045514 | 38 | 0 | 0.0 | 1.0 | 0.00 | 0.00 | 0.00 | 83 | 1019.1 |
| 20260503045019 | 38 | 0 | 0.0 | 1.0 | 0.00 | 0.00 | 0.00 | 84 | 1019.0 |
| 20260503044532 | 38 | 0 | 0.0 | 0.0 | 0.00 | 0.00 | 0.00 | 84 | 1019.2 |
| 20260503044012 | 38 | 0 | 0.0 | 0.0 | 0.00 | 0.00 | 0.00 | 83 | 1019.1 |
| 20260503043510 | 39 | 0 | 0.0 | 0.0 | 0.00 | 0.00 | 0.00 | 82 | 1019.2 |
| 20260503043031 | 39 | 0 | 0.0 | 0.0 | 0.00 | 0.00 | 0.00 | 82 | 1019.3 |
| 20260503042513 | 39 | 0 | 0.0 | 0.0 | 0.00 | 0.00 | 0.00 | 81 | 1019.2 |
| 20260503042014 | 39 | 0 | 0.0 | 0.0 | 0.00 | 0.00 | 0.00 | 81 | 1019.1 |
| 20260503041532 | 40 | 0 | 0.0 | 0.0 | 0.00 | 0.00 | 0.00 | 79 | 1019.1 |
| 20260503041014 | 41 | 0 | 0.0 | 0.0 | 0.00 | 0.00 | 0.00 | 79 | 1019.1 |
| 20260503040513 | 41 | 0 | 0.0 | 1.0 | 0.00 | 0.00 | 0.00 | 78 | 1019.0 |
| 20260503040036 | 41 | 0 | 0.0 | 1.0 | 0.00 | 0.00 | 0.00 | 76 | 1019.1 |
| 20260503035513 | 42 | 42 | 0.0 | 1.0 | 0.00 | 0.00 | 0.00 | 76 | 1019.1 |
| 20260503035014 | 42 | 0 | 0.0 | 1.0 | 0.00 | 0.00 | 0.00 | 77 | 1019.0 |
| 20260503034536 | 42 | 0 | 0.0 | 0.0 | 0.00 | 0.00 | 0.00 | 76 | 1019.1 |
| 20260503034012 | 42 | 0 | 0.0 | 1.0 | 0.00 | 0.00 | 0.00 | 75 | 1019.1 |
| 20260503033511 | 43 | 0 | 0.0 | 1.0 | 0.00 | 0.00 | 0.00 | 74 | 1019.0 |
| 20260503033031 | 43 | 42 | 0.0 | 1.0 | 0.00 | 0.00 | 0.00 | 74 | 1019.1 |
| 20260503032515 | 43 | 0 | 0.0 | 1.0 | 0.00 | 0.00 | 0.00 | 75 | 1019.1 |
| 20260503032020 | 44 | 0 | 0.0 | 1.0 | 0.00 | 0.00 | 0.00 | 74 | 1019.0 |
| 20260503031535 | 44 | 0 | 0.0 | 1.0 | 0.00 | 0.00 | 0.00 | 73 | 1019.0 |
| 20260503031016 | 44 | 43 | 0.0 | 1.0 | 0.00 | 0.00 | 0.00 | 73 | 1019.0 |
| 20260503030512 | 45 | 42 | 0.0 | 1.0 | 0.00 | 0.00 | 0.00 | 73 | 1019.0 |
| 20260503030031 | 45 | 43 | 0.0 | 1.0 | 0.00 | 0.00 | 0.00 | 73 | 1019.0 |
| 20260503025512 | 45 | 42 | 0.0 | 1.0 | 0.00 | 0.00 | 0.00 | 72 | 1018.9 |
| 20260503025014 | 46 | 0 | 0.0 | 1.0 | 0.00 | 0.00 | 0.00 | 71 | 1018.8 |
| 20260503024533 | 46 | 0 | 0.0 | 1.0 | 0.00 | 0.00 | 0.00 | 69 | 1018.8 |
| 20260503024014 | 46 | 43 | 0.0 | 2.0 | 0.00 | 0.00 | 0.00 | 68 | 1018.7 |
| 20260503023511 | 47 | 42 | 0.0 | 3.0 | 0.00 | 0.00 | 0.00 | 67 | 1018.7 |
| 20260503023033 | 47 | 42 | 1.0 | 4.0 | 0.00 | 0.00 | 0.00 | 66 | 1018.6 |
| 20260503022510 | 47 | 23 | 1.0 | 4.0 | 0.00 | 0.00 | 0.00 | 66 | 1018.6 |
| 20260503022014 | 47 | 18 | 2.0 | 4.0 | 0.00 | 0.00 | 0.00 | 65 | 1018.5 |
| 20260503021532 | 48 | 49 | 1.0 | 2.0 | 0.00 | 0.00 | 0.00 | 66 | 1018.5 |
| 20260503021014 | 48 | 37 | 1.0 | 2.0 | 0.00 | 0.00 | 0.00 | 66 | 1018.3 |
| 20260503020513 | 48 | 47 | 1.0 | 2.0 | 0.00 | 0.00 | 0.00 | 68 | 1018.3 |
| 20260503020032 | 48 | 9 | 1.0 | 3.0 | 0.00 | 0.00 | 0.00 | 68 | 1018.3 |
| 20260503015512 | 48 | 8 | 0.0 | 3.0 | 0.00 | 0.00 | 0.00 | 69 | 1018.2 |
| 20260503015012 | 48 | 46 | 0.0 | 1.0 | 0.00 | 0.00 | 0.00 | 68 | 1018.2 |
| 20260503014540 | 48 | 46 | 0.0 | 2.0 | 0.00 | 0.00 | 0.00 | 68 | 1018.1 |
| 20260503014012 | 49 | 46 | 1.0 | 2.0 | 0.00 | 0.00 | 0.00 | 67 | 1018.0 |
| 20260503013513 | 49 | 46 | 0.0 | 2.0 | 0.00 | 0.00 | 0.00 | 67 | 1018.0 |
| 20260503013032 | 49 | 46 | 1.0 | 2.0 | 0.00 | 0.00 | 0.00 | 67 | 1017.9 |
| 20260503012510 | 49 | 32 | 1.0 | 3.0 | 0.00 | 0.00 | 0.00 | 67 | 1017.9 |
| 20260503012013 | 49 | 0 | 0.0 | 3.0 | 0.00 | 0.00 | 0.00 | 67 | 1017.9 |
| 20260503011530 | 49 | 38 | 2.0 | 3.0 | 0.00 | 0.00 | 0.00 | 68 | 1017.7 |
| 20260503011011 | 49 | 7 | 0.0 | 3.0 | 0.00 | 0.00 | 0.00 | 68 | 1017.6 |
| 20260503010513 | 49 | 39 | 0.0 | 1.0 | 0.00 | 0.00 | 0.00 | 68 | 1017.6 |
| 20260503010032 | 49 | 0 | 0.0 | 1.0 | 0.00 | 0.00 | 0.00 | 68 | 1017.6 |
| 20260503005510 | 50 | 0 | 0.0 | 1.0 | 0.00 | 0.00 | 0.00 | 68 | 1017.5 |
| 20260503005015 | 50 | 0 | 0.0 | 1.0 | 0.00 | 0.00 | 0.00 | 67 | 1017.5 |
| 20260503004532 | 50 | 0 | 0.0 | 1.0 | 0.00 | 0.00 | 0.00 | 65 | 1017.4 |
| 20260503004012 | 51 | 0 | 0.0 | 0.0 | 0.00 | 0.00 | 0.00 | 63 | 1017.5 |
| 20260503003512 | 51 | 0 | 0.0 | 0.0 | 0.00 | 0.00 | 0.00 | 64 | 1017.4 |
| 20260503003032 | 51 | 0 | 0.0 | 1.0 | 0.00 | 0.00 | 0.00 | 63 | 1017.4 |
| 20260503002512 | 51 | 0 | 0.0 | 1.0 | 0.00 | 0.00 | 0.00 | 62 | 1017.3 |
| 20260503002016 | 51 | 0 | 0.0 | 2.0 | 0.00 | 0.00 | 0.00 | 61 | 1017.3 |
| 20260503001532 | 52 | 0 | 0.0 | 2.0 | 0.00 | 0.00 | 0.00 | 60 | 1017.2 |
| 20260503001012 | 52 | 39 | 1.0 | 3.0 | 0.00 | 0.00 | 0.00 | 59 | 1017.1 |
| 20260503000516 | 52 | 39 | 1.0 | 3.0 | 0.00 | 0.00 | 0.00 | 58 | 1017.1 |
| 20260503000031 | 52 | 27 | 1.0 | 3.0 | 0.00 | 0.00 | 0.00 | 58 | 1017.0 |
| 20260502235511 | 52 | 20 | 1.0 | 3.0 | 0.00 | 0.00 | 0.00 | 58 | 1016.9 |
| 20260502235011 | 52 | 43 | 1.0 | 3.0 | 0.00 | 0.00 | 0.00 | 57 | 1016.9 |
| 20260502234533 | 52 | 0 | 1.0 | 4.0 | 0.00 | 0.00 | 0.00 | 57 | 1016.9 |
| 20260502234009 | 53 | 42 | 2.0 | 4.0 | 0.00 | 0.00 | 0.00 | 56 | 1016.9 |
| 20260502233513 | 53 | 323 | 0.0 | 5.0 | 0.00 | 0.00 | 0.00 | 56 | 1016.9 |
| 20260502233041 | 53 | 333 | 1.0 | 7.0 | 0.00 | 0.00 | 0.00 | 55 | 1017.0 |
| 20260502232512 | 53 | 16 | 2.0 | 7.0 | 0.00 | 0.00 | 0.00 | 54 | 1016.9 |
| 20260502232014 | 53 | 330 | 4.0 | 7.0 | 0.00 | 0.00 | 0.00 | 54 | 1016.9 |
| 20260502231549 | 53 | 31 | 2.0 | 5.0 | 0.00 | 0.00 | 0.00 | 55 | 1016.8 |
| 20260502231010 | 53 | 1 | 2.0 | 5.0 | 0.00 | 0.00 | 0.00 | 54 | 1016.9 |
| 20260502230511 | 53 | 296 | 2.0 | 6.0 | 0.00 | 0.00 | 0.00 | 56 | 1016.9 |
| 20260502230030 | 53 | 332 | 2.0 | 6.0 | 0.00 | 0.00 | 0.00 | 56 | 1016.9 |
| 20260502225512 | 53 | 273 | 1.0 | 6.0 | 0.00 | 0.00 | 0.00 | 56 | 1017.0 |
| 20260502225014 | 53 | 344 | 1.0 | 5.0 | 0.00 | 0.00 | 0.00 | 56 | 1016.8 |
| 20260502224532 | 53 | 5 | 2.0 | 9.0 | 0.00 | 0.00 | 0.00 | 55 | 1017.0 |
| 20260502224009 | 53 | 40 | 3.0 | 9.0 | 0.00 | 0.00 | 0.00 | 54 | 1016.9 |
| 20260502223512 | 54 | 340 | 2.0 | 5.0 | 0.00 | 0.00 | 0.00 | 54 | 1016.9 |
| 20260502223031 | 54 | 1 | 2.0 | 9.0 | 0.00 | 0.00 | 0.00 | 54 | 1016.9 |
| 20260502222512 | 53 | 262 | 3.0 | 9.0 | 0.00 | 0.00 | 0.00 | 54 | 1016.9 |
| 20260502222011 | 54 | 269 | 3.0 | 8.0 | 0.00 | 0.00 | 0.00 | 52 | 1016.9 |
| 20260502221532 | 55 | 334 | 3.0 | 7.0 | 0.00 | 0.00 | 0.00 | 52 | 1016.8 |
| 20260502221009 | 55 | 300 | 2.0 | 7.0 | 0.00 | 0.00 | 0.00 | 54 | 1016.9 |
| 20260502220513 | 55 | 267 | 2.0 | 4.0 | 0.00 | 0.00 | 0.00 | 53 | 1016.7 |
| 20260502220037 | 54 | 324 | 1.0 | 7.0 | 0.00 | 0.00 | 0.00 | 56 | 1016.8 |
| 20260502215513 | 53 | 308 | 1.0 | 7.0 | 0.00 | 0.00 | 0.00 | 56 | 1016.8 |
| 20260502215013 | 52 | 14 | 4.0 | 7.0 | 0.00 | 0.00 | 0.00 | 54 | 1016.8 |
| 20260502214532 | 53 | 23 | 4.0 | 7.0 | 0.00 | 0.00 | 0.00 | 56 | 1016.7 |
| 20260502214010 | 53 | 323 | 2.0 | 6.0 | 0.00 | 0.00 | 0.00 | 57 | 1016.8 |
| 20260502213513 | 52 | 40 | 2.0 | 9.0 | 0.00 | 0.00 | 0.00 | 57 | 1016.8 |
| 20260502213037 | 52 | 347 | 4.0 | 9.0 | 0.00 | 0.00 | 0.00 | 57 | 1016.9 |
| 20260502212510 | 52 | 342 | 3.0 | 9.0 | 0.00 | 0.00 | 0.00 | 57 | 1016.9 |
| 20260502212014 | 52 | 339 | 4.0 | 8.0 | 0.00 | 0.00 | 0.00 | 56 | 1017.0 |
| 20260502211542 | 52 | 310 | 4.0 | 8.0 | 0.00 | 0.00 | 0.00 | 56 | 1017.0 |
| 20260502211015 | 52 | 38 | 3.0 | 7.0 | 0.00 | 0.00 | 0.00 | 56 | 1017.0 |
| 20260502210512 | 52 | 339 | 3.0 | 6.0 | 0.00 | 0.00 | 0.00 | 55 | 1017.0 |
| 20260502210030 | 53 | 323 | 2.0 | 8.0 | 0.00 | 0.00 | 0.00 | 55 | 1016.9 |
| 20260502205512 | 53 | 0 | 4.0 | 8.0 | 0.00 | 0.00 | 0.00 | 55 | 1016.9 |
| 20260502205013 | 53 | 267 | 4.0 | 14.0 | 0.00 | 0.00 | 0.00 | 53 | 1016.9 |
| 20260502204531 | 53 | 31 | 5.0 | 14.0 | 0.00 | 0.00 | 0.00 | 55 | 1017.0 |
| 20260502204009 | 53 | 32 | 5.0 | 10.0 | 0.00 | 0.00 | 0.00 | 54 | 1016.9 |
| 20260502203509 | 53 | 316 | 3.0 | 9.0 | 0.00 | 0.00 | 0.00 | 55 | 1016.8 |
| 20260502203030 | 54 | 340 | 4.0 | 10.0 | 0.00 | 0.00 | 0.00 | 54 | 1016.8 |
| 20260502202510 | 53 | 52 | 2.0 | 11.0 | 0.00 | 0.00 | 0.00 | 54 | 1016.8 |
| 20260502202011 | 53 | 8 | 6.0 | 11.0 | 0.00 | 0.00 | 0.00 | 54 | 1016.9 |
| 20260502201529 | 54 | 338 | 3.0 | 9.0 | 0.00 | 0.00 | 0.00 | 54 | 1016.8 |
| 20260502201010 | 54 | 345 | 4.0 | 9.0 | 0.00 | 0.00 | 0.00 | 53 | 1016.8 |
| 20260502200515 | 54 | 24 | 1.0 | 6.0 | 0.00 | 0.00 | 0.00 | 58 | 1016.8 |
| 20260502200032 | 53 | 328 | 2.0 | 6.0 | 0.00 | 0.00 | 0.00 | 56 | 1016.8 |
| 20260502195514 | 53 | 8 | 0.0 | 4.0 | 0.00 | 0.00 | 0.00 | 57 | 1016.9 |
| 20260502195012 | 53 | 286 | 1.0 | 4.0 | 0.00 | 0.00 | 0.00 | 54 | 1016.9 |
| 20260502194531 | 53 | 272 | 1.0 | 3.0 | 0.00 | 0.00 | 0.00 | 58 | 1017.1 |
| 20260502194013 | 53 | 329 | 0.0 | 6.0 | 0.00 | 0.00 | 0.00 | 57 | 1017.0 |
| 20260502193512 | 53 | 347 | 2.0 | 6.0 | 0.00 | 0.00 | 0.00 | 56 | 1017.1 |
| 20260502193031 | 53 | 26 | 4.0 | 6.0 | 0.00 | 0.00 | 0.00 | 56 | 1016.9 |